[[{"header":{"parameterUnit":"m.s-1","parameterCategory":1,"la1":30.2991,"la2":30.254,"lo1":-89.0895,"lo2":-89.0444,"dy":0.0017,"dx":0.0017,"nx":28,"ny":28,"refTime":"2024-07-18T21:00:00:Z","depth":0,"parameterNumber":2,"parameterNumberName":"U-component_of_WINDS"},"data":[0,0,0,0,0,0,0,0,0,0,0,0,0,0,0,0,0,0,0,0,0,0,0,0,0,0,0,0,0,0,0,0,0,0,0,0,0,0,0,0,0,0,0,0,0,0,0,0,0,0,0,0,0,0,0,0,0,0,-2.3639,-2.3639,0,-2.3656,-2.3656,-2.3656,-2.3587,-2.3585,-2.3583,-2.3581,-2.36,-2.3602,-2.3605,0,0,0,0,0,0,0,0,0,0,0,0,0,-2.3549,-2.3551,-2.3639,-2.3639,-2.3639,-2.3656,-2.3656,-2.3656,-2.3587,-2.3585,-2.3582,-2.358,-2.3599,-2.3602,-2.3605,0,0,0,0,0,0,0,0,0,0,0,0,0,-2.3579,-2.3552,-2.3639,-2.3607,-2.3604,-2.3656,-2.3656,-2.3656,-2.3588,-2.3584,-2.3581,-2.3579,-2.3598,-2.3602,-2.3605,-2.369,0,0,-2.3617,-2.3618,0,0,0,0,0,0,0,0,-2.3578,-2.3583,-2.3611,-2.3609,-2.3606,-2.3616,-2.3631,-2.3668,-2.3588,-2.3594,-2.3581,-2.3577,-2.3608,-2.3611,-2.3621,-2.369,-2.3691,-2.3617,-2.3619,-2.3621,-2.3622,0,0,0,0,0,0,0,-2.3576,-2.3582,-2.3646,-2.3612,-2.3609,-2.3592,-2.3593,-2.3638,-2.3618,-2.3593,-2.3588,-2.3591,-2.3606,-2.3617,-2.3621,-2.3692,-2.3617,-2.362,-2.3622,-2.3624,-2.3832,-2.3835,0,0,0,0,0,0,-2.3578,-2.358,-2.3645,-2.3646,-2.3584,-2.3596,-2.3597,-2.3616,-2.3617,-2.3615,-2.3594,-2.3588,-2.3613,-2.3616,-2.3621,-2.372,-2.3621,-2.3624,-2.3626,-2.3828,-2.3832,-2.3836,0,0,0,0,0,0,-2.3576,-2.3584,-2.3644,-2.3612,-2.3618,-2.3601,-2.3623,-2.3618,-2.3629,-2.3618,-2.3614,-2.3609,-2.361,-2.3616,-2.3673,-2.3719,-2.3626,-2.3629,-2.3824,-2.383,-2.3834,-2.3918,0,0,0,0,0,0,-2.3574,-2.3584,-2.3615,-2.3613,-2.362,-2.3696,-2.3625,-2.362,-2.3635,-2.3628,-2.3631,-2.3628,-2.3608,-2.3668,-2.3677,-2.3723,-2.3632,-2.382,-2.3827,-2.3833,-2.3911,-2.3925,-2.3937,0,0,0,0,0,-2.3571,-2.3638,-2.3617,-2.3625,-2.3659,-2.3699,-2.3703,-2.3678,-2.3639,-2.3671,-2.3664,-2.3628,-2.3713,-2.3674,-2.3684,-2.3731,-2.3817,-2.3825,-2.3832,-2.3905,-2.3922,-2.3937,0,0,0,0,0,0,-2.3647,-2.3637,-2.3614,-2.3683,-2.3692,-2.3687,-2.3726,-2.3697,-2.3718,-2.371,-2.3678,-2.368,-2.3742,-2.3743,-2.37,-2.3813,-2.3758,-2.3768,-2.3811,-2.3827,-2.384,-2.3839,-2.3635,0,0,0,0,0,-2.3672,-2.3704,-2.3694,-2.3756,-2.3762,-2.3743,-2.376,-2.3739,-2.3748,-2.3752,-2.3748,-2.3759,-2.3788,-2.3807,-2.3833,-2.391,-2.391,-2.3948,-2.3961,-2.3972,-2.3981,-2.4022,-2.4039,-2.3861,-2.3861,-2.386,0,0,-2.3723,-2.3722,-2.3744,-2.3771,-2.3776,-2.3811,-2.3747,-2.3786,-2.3812,-2.3758,-2.3811,-2.381,-2.3819,-2.3887,-2.3916,-2.3889,-2.403,-2.3982,-2.3991,-2.3993,-2.4032,-2.4049,-2.4064,-2.3866,-2.3865,-2.3864,0,0,-2.3835,-2.3837,-2.3889,-2.3895,-2.3903,-2.389,-2.3903,-2.3902,-2.3899,-2.3952,-2.3912,-2.3942,-2.3992,-2.4001,-2.4012,-2.4127,-2.4096,-2.4137,-2.4206,-2.4246,-2.4261,-2.4273,-2.4314,-2.433,-2.4146,-2.4146,-2.4146,0,-2.3898,-2.3948,-2.392,-2.3962,-2.3975,-2.3927,-2.3979,-2.3987,-2.4003,-2.4014,-2.3983,-2.4045,-2.4048,-2.4117,-2.4145,-2.4155,-2.4169,-2.4136,-2.4261,-2.4273,-2.4284,-2.4323,-2.4339,-2.4151,-2.415,-2.415,-2.4149,0,-2.4026,-2.4062,-2.4103,-2.4119,-2.4137,-2.4184,-2.4163,-2.4185,-2.4163,-2.4154,-2.4209,-2.4211,-2.4237,-2.4252,-2.4231,-2.4318,-2.4301,-2.4266,-2.421,-2.4306,-2.4343,-2.4357,-2.4158,-2.4156,-2.4155,-2.4153,0,0,-2.4186,-2.4186,-2.4202,-2.4208,-2.4214,-2.4241,-2.4286,-2.4311,-2.433,-2.4343,-2.4381,-2.4425,-2.4392,-2.4405,-2.4385,-2.4421,-2.4513,-2.4381,-2.4381,-2.4406,-2.4609,-2.4636,-2.4653,-2.4492,-2.4494,-2.4497,-2.4608,0,-2.4296,-2.4373,-2.4348,-2.4426,-2.4459,-2.4414,-2.4454,-2.4462,-2.4455,-2.4482,-2.4474,-2.4506,-2.446,-2.4468,-2.4501,-2.4494,-2.4553,-2.4486,-2.4527,-2.4529,-2.4526,-2.4672,-2.47,-2.4806,-2.4622,-2.4625,-2.4626,0,-2.4434,-2.4452,-2.4533,-2.4533,-2.4546,-2.4582,-2.4603,-2.4629,-2.4637,-2.463,-2.4644,-2.4617,-2.4662,-2.4607,-2.4669,-2.4624,-2.4639,-2.4639,-2.4642,-2.4645,-2.4584,-2.468,-2.4839,-2.4855,-2.4648,-2.4647,-2.4645,0,-2.4543,-2.4588,-2.4642,-2.4649,-2.4651,-2.4677,-2.4679,-2.4684,-2.47,-2.4719,-2.4729,-2.4753,-2.4766,-2.4785,-2.4766,-2.4727,-2.4831,-2.4774,-2.4827,-2.4828,-2.4851,-2.485,-2.5015,-2.4861,-2.4861,-2.486,-2.486,0,-2.4669,-2.472,-2.4691,-2.4725,-2.4781,-2.4753,-2.481,-2.4807,-2.4812,-2.4845,-2.4807,-2.4839,-2.4811,-2.484,-2.4825,-2.488,-2.4886,-2.4881,-2.4877,-2.4885,-2.4886,-2.4895,-2.4887,-2.4865,-2.4864,-2.4863,-2.4862,0,-2.48,-2.4782,-2.4839,-2.4835,-2.4835,-2.4877,-2.4875,-2.4906,-2.4896,-2.4938,-2.4946,-2.4931,-2.4964,-2.4946,-2.498,-2.497,-2.504,-2.5026,-2.5037,-2.5033,-2.5087,-2.5083,-2.5264,-2.5287,-2.5118,-2.512,-2.5121,0,-2.4881,-2.4919,-2.492,-2.4939,-2.4943,-2.4974,-2.499,-2.4964,-2.4983,-2.4995,-2.5025,-2.5055,-2.5077,-2.5131,-2.5124,-2.515,-2.5136,-2.5197,-2.5139,-2.5146,-2.5137,-2.5135,-2.5139,-2.5209,-2.5211,-2.5213,-2.5214,0,-2.5027,-2.5016,-2.5041,-2.5063,-2.5083,-2.5099,-2.5112,-2.513,-2.5104,-2.5127,-2.516,-2.5177,-2.5211,-2.5241,-2.5264,-2.5266,-2.5237,-2.5233,-2.5246,-2.5255,-2.526,-2.5258,-2.5069,-2.5229,-2.5227,-2.5226,-2.5225,-2.5225,-2.5136,-2.5168,-2.5173,-2.5202,-2.5209,-2.5222,-2.5251,-2.5245,-2.5271,-2.5297,-2.528,-2.5319,-2.5326,-2.5353,-2.536,-2.539,-2.5365,-2.5385,-2.539,-2.5396,-2.5403,-2.5255,-2.5394,-2.5394,-2.5393,-2.5393,-2.5393,0,-2.5279,-2.5281,-2.5307,-2.5327,-2.535,-2.5319,-2.5332,-2.5353,-2.5387,-2.5397,-2.5419,-2.5457,-2.5486,-2.5481,-2.5507,-2.5533,-2.552,-2.554,-2.5538,-2.554,-2.5423,-2.5409,-2.555,-2.555,-2.555,-2.555,-2.555,-2.555,-2.5357,-2.541,-2.54,-2.5456,-2.5457,-2.5494,-2.5504,-2.5517,-2.5524,-2.5568,-2.5591,-2.5587,-2.5591,-2.5618,-2.5643,-2.5641,-2.5653,-2.5679,-2.5672,-2.5563,-2.5548,-2.5533,-2.5519,-2.5681,-2.5682,-2.5785,-2.5786,-2.5787]},{"header":{"parameterUnit":"m.s-1","parameterCategory":1,"la1":30.2991,"la2":30.254,"lo1":-89.0895,"lo2":-89.0444,"dy":0.0017,"dx":0.0017,"nx":28,"ny":28,"refTime":"2024-07-18T21:00:00:Z","depth":0,"parameterNumber":3,"parameterNumberName":"V-component_of_WINDS"},"data":[0,0,0,0,0,0,0,0,0,0,0,0,0,0,0,0,0,0,0,0,0,0,0,0,0,0,0,0,0,0,0,0,0,0,0,0,0,0,0,0,0,0,0,0,0,0,0,0,0,0,0,0,0,0,0,0,0,0,0.2824,0.2824,0,0.2779,0.2778,0.2778,0.2779,0.278,0.278,0.2781,0.2731,0.2729,0.2727,0,0,0,0,0,0,0,0,0,0,0,0,0,0.291,0.2908,0.2824,0.2824,0.2823,0.2779,0.2778,0.2777,0.2779,0.278,0.2781,0.2781,0.2732,0.2729,0.2727,0,0,0,0,0,0,0,0,0,0,0,0,0,0.2869,0.2908,0.2825,0.2819,0.2818,0.2779,0.2778,0.2777,0.2779,0.278,0.2781,0.2782,0.2732,0.273,0.2727,0.2689,0,0,0.2718,0.2717,0,0,0,0,0,0,0,0,0.2872,0.2866,0.282,0.2819,0.2818,0.2786,0.279,0.2748,0.2779,0.2793,0.2781,0.2782,0.2748,0.2744,0.2733,0.2687,0.2685,0.2718,0.2716,0.2715,0.2714,0,0,0,0,0,0,0,0.2874,0.2868,0.2806,0.282,0.2818,0.2817,0.2813,0.2782,0.2766,0.2792,0.2792,0.2787,0.2748,0.2736,0.2732,0.2684,0.2718,0.2715,0.2713,0.2712,0.2603,0.2602,0,0,0,0,0,0,0.2879,0.287,0.2808,0.2805,0.2848,0.2815,0.281,0.2795,0.2766,0.2763,0.2786,0.2787,0.274,0.2735,0.273,0.2683,0.2715,0.2712,0.271,0.2604,0.2603,0.2602,0,0,0,0,0,0,0.2881,0.2873,0.281,0.2838,0.2829,0.2813,0.2796,0.2794,0.2782,0.2762,0.2759,0.2777,0.2741,0.2734,0.2699,0.2682,0.2711,0.2708,0.2606,0.2604,0.2602,0.259,0,0,0,0,0,0,0.2883,0.2874,0.2861,0.2837,0.2828,0.278,0.2795,0.2792,0.2777,0.2778,0.2753,0.2749,0.2741,0.2704,0.2696,0.2678,0.2706,0.2607,0.2605,0.2603,0.2592,0.2588,0.2585,0,0,0,0,0,0.2886,0.2859,0.286,0.2852,0.2811,0.2779,0.2774,0.2766,0.2776,0.2761,0.2748,0.275,0.2685,0.27,0.2692,0.2672,0.2608,0.2605,0.2603,0.2593,0.2589,0.2585,0,0,0,0,0,0,0.2879,0.2855,0.2857,0.2821,0.2802,0.278,0.2761,0.2762,0.2739,0.2741,0.2731,0.2726,0.269,0.2678,0.2695,0.2634,0.2648,0.2643,0.2643,0.2638,0.2635,0.2638,0.2703,0,0,0,0,0,0.2874,0.2851,0.2831,0.2802,0.2792,0.2779,0.2765,0.276,0.274,0.2732,0.2716,0.2696,0.267,0.2654,0.263,0.259,0.2584,0.2573,0.2569,0.2567,0.2562,0.2539,0.2533,0.2593,0.2593,0.2593,0,0,0.2862,0.2846,0.2832,0.28,0.2785,0.276,0.2772,0.2746,0.2727,0.2728,0.2693,0.2681,0.2657,0.262,0.2602,0.2608,0.2544,0.2563,0.2561,0.2558,0.2535,0.253,0.2525,0.2591,0.2592,0.2592,0,0,0.2827,0.2814,0.2787,0.2772,0.2749,0.274,0.2734,0.2711,0.2703,0.2669,0.2668,0.2645,0.2603,0.2585,0.2571,0.2529,0.2529,0.2521,0.2502,0.2479,0.2474,0.247,0.2453,0.2447,0.2517,0.2517,0.2517,0,0.2815,0.2779,0.2773,0.2746,0.2731,0.2732,0.2703,0.2688,0.2659,0.2648,0.2655,0.2601,0.2585,0.2542,0.2532,0.2521,0.2512,0.2523,0.2476,0.2471,0.2467,0.2451,0.2445,0.2516,0.2516,0.2517,0.2517,0,0.2764,0.2739,0.272,0.2692,0.2675,0.2647,0.2636,0.2619,0.2616,0.2605,0.2569,0.2551,0.2522,0.2512,0.2508,0.2468,0.2472,0.2478,0.2491,0.246,0.2445,0.2439,0.2515,0.2515,0.2516,0.2516,0,0,0.2724,0.2692,0.2685,0.2671,0.2646,0.2626,0.2598,0.2571,0.2556,0.2535,0.251,0.2474,0.2478,0.2462,0.2457,0.2437,0.2402,0.2445,0.2444,0.2436,0.2354,0.2349,0.2342,0.2403,0.2402,0.2401,0.2355,0,0.2685,0.2637,0.263,0.2586,0.2562,0.2561,0.2537,0.2518,0.2507,0.2484,0.2472,0.2445,0.2455,0.2444,0.2425,0.2411,0.2385,0.2414,0.2377,0.2376,0.2382,0.2334,0.2328,0.2287,0.2349,0.2348,0.2348,0,0.2634,0.2612,0.2566,0.2543,0.2532,0.2511,0.2484,0.2463,0.244,0.2434,0.2415,0.2412,0.2381,0.2397,0.2353,0.2373,0.2358,0.2348,0.2346,0.2341,0.2359,0.2326,0.2273,0.2266,0.2338,0.2339,0.234,0,0.2607,0.2566,0.2533,0.2521,0.2494,0.2478,0.2466,0.2445,0.2428,0.2405,0.2394,0.2367,0.2352,0.233,0.2319,0.2332,0.2276,0.2291,0.2268,0.2268,0.2255,0.2255,0.2197,0.2248,0.2248,0.2248,0.2248,0,0.2563,0.2535,0.252,0.2499,0.2467,0.2459,0.2426,0.2414,0.2395,0.2371,0.2369,0.2346,0.2334,0.2309,0.23,0.2264,0.2258,0.225,0.2248,0.225,0.225,0.2238,0.224,0.2246,0.2247,0.2247,0.2247,0,0.2527,0.2516,0.248,0.2457,0.245,0.2427,0.2407,0.2386,0.2376,0.2345,0.2337,0.232,0.229,0.2278,0.2241,0.2235,0.2193,0.2194,0.2201,0.22,0.2176,0.2178,0.2107,0.2097,0.2156,0.2155,0.2155,0,0.25,0.2478,0.2452,0.2436,0.2424,0.2398,0.2381,0.2372,0.2354,0.2327,0.2309,0.2279,0.2255,0.2207,0.219,0.2162,0.2161,0.2138,0.2156,0.2158,0.2158,0.2159,0.2155,0.2134,0.2133,0.2133,0.2132,0,0.2451,0.2447,0.2423,0.2397,0.2377,0.2356,0.2335,0.2322,0.2309,0.2289,0.2259,0.224,0.2203,0.2172,0.2143,0.2128,0.2127,0.2127,0.212,0.212,0.2124,0.212,0.219,0.2128,0.2129,0.2129,0.2129,0.2129,0.2417,0.2397,0.2376,0.2349,0.2332,0.2313,0.2292,0.2279,0.2254,0.2223,0.2219,0.2186,0.2163,0.2123,0.2107,0.208,0.2086,0.2076,0.2073,0.207,0.2068,0.213,0.2075,0.2075,0.2075,0.2075,0.2075,0,0.2367,0.2353,0.2329,0.23,0.2278,0.2281,0.2258,0.2239,0.2211,0.219,0.2166,0.213,0.21,0.2081,0.2051,0.2033,0.2032,0.2025,0.2026,0.2022,0.2066,0.2074,0.2027,0.2027,0.2027,0.2027,0.2027,0.2027,0.2339,0.2304,0.2297,0.2253,0.2239,0.2208,0.2194,0.2175,0.2158,0.2119,0.2095,0.2083,0.2062,0.203,0.2002,0.1998,0.1986,0.1978,0.1973,0.2014,0.2019,0.2024,0.2032,0.1976,0.1976,0.1932,0.1931,0.1931]}]]